T 2004 Oct. 23.28615 TT                                 Nakano

q   2.1042501            (2000.0)            P               Q

n   0.14786302     Peri.  224.12024     +0.68909123     +0.71342638

a   3.5418459      Node    89.88665     -0.62467441     +0.67374513

e   0.4058889      Incl.    7.30698     -0.36733522     +0.19258844

P   6.67

From 91 observations 1991-1999, mean residual 0".53.



NAKANO

         **** Don't distribute anyone except personal use only ****

                (C) Copyright 2001 OAA/ComputingSection

write mail from CFAD0::NAKANO on 2001-04-28 20:31:35(JST).

 



–ß‚è‚Ü‚·B